KZR436 UACC-UAAA

Flight info

Callsign KZR436
Flight time N/A
Altitude 35000
Route BANOS1A BANOS W333 ETEDA ETEDA1Z
Aircraft A321/M-SDE3FGHIRWY/LB1

Departure

Time N/A
Airport Nursultan Nazarbayev International Airport (UACC)

Arrival

Time 2026-05-06 16:10
Airport Almaty International Airport (UAAA)
Time Latitude Longitude Altitude Speed Heading
2026-05-06 15:09 49.36987 73.56763 27664 ft 491 kts 161°
2026-05-06 15:09 49.33801 73.58656 27918 ft 491 kts 162°
2026-05-06 15:09 49.30593 73.60478 28176 ft 490 kts 163°
2026-05-06 15:10 49.27393 73.62278 28431 ft 490 kts 163°
2026-05-06 15:10 49.24200 73.64094 28674 ft 490 kts 162°
2026-05-06 15:10 49.21011 73.65947 28943 ft 489 kts 162°
2026-05-06 15:10 49.17841 73.67822 29205 ft 489 kts 161°
2026-05-06 15:11 49.14667 73.69720 29461 ft 489 kts 161°
2026-05-06 15:11 49.11497 73.71621 29710 ft 489 kts 161°
2026-05-06 15:11 49.08328 73.73515 29967 ft 489 kts 161°
2026-05-06 15:11 49.05159 73.75399 30215 ft 488 kts 161°
2026-05-06 15:12 49.01982 73.77270 30405 ft 489 kts 161°
2026-05-06 15:12 48.98849 73.79104 30593 ft 489 kts 161°
2026-05-06 15:12 48.95673 73.80965 30783 ft 490 kts 161°
2026-05-06 15:12 48.92449 73.82850 30978 ft 490 kts 161°
2026-05-06 15:13 48.89263 73.84710 31176 ft 491 kts 161°
2026-05-06 15:13 48.86113 73.86543 31362 ft 491 kts 161°
2026-05-06 15:13 48.82922 73.88393 31541 ft 491 kts 161°
2026-05-06 15:13 48.79727 73.90248 31728 ft 492 kts 161°
2026-05-06 15:14 48.76527 73.92100 31910 ft 493 kts 161°
2026-05-06 15:14 48.73323 73.93954 32110 ft 493 kts 161°
2026-05-06 15:14 48.70120 73.95810 32299 ft 493 kts 161°
2026-05-06 15:14 48.66912 73.97668 32492 ft 494 kts 161°
2026-05-06 15:15 48.63700 73.99523 32676 ft 494 kts 161°
2026-05-06 15:15 48.60488 74.01375 32847 ft 494 kts 161°
2026-05-06 15:15 48.57270 74.03223 33042 ft 495 kts 161°
2026-05-06 15:15 48.54050 74.05069 33219 ft 495 kts 161°
2026-05-06 15:16 48.50828 74.06917 33403 ft 495 kts 161°
2026-05-06 15:16 48.47605 74.08767 33587 ft 496 kts 160°
2026-05-06 15:16 48.44383 74.10614 33768 ft 496 kts 161°
2026-05-06 15:16 48.41152 74.12461 33933 ft 497 kts 160°
2026-05-06 15:17 48.37915 74.14303 34071 ft 498 kts 160°
2026-05-06 15:17 48.34667 74.16152 34219 ft 499 kts 160°
2026-05-06 15:17 48.31429 74.18000 34396 ft 498 kts 160°
2026-05-06 15:17 48.28230 74.19823 34586 ft 497 kts 160°
2026-05-06 15:18 48.25001 74.21665 34772 ft 496 kts 160°
2026-05-06 15:18 48.21771 74.23501 34966 ft 495 kts 160°
2026-05-06 15:18 48.18545 74.25327 35081 ft 496 kts 160°
2026-05-06 15:19 48.12062 74.28981 35098 ft 499 kts 160°
2026-05-06 15:19 48.05572 74.32672 35098 ft 499 kts 160°
2026-05-06 15:20 47.99087 74.36390 35092 ft 500 kts 160°
2026-05-06 15:20 47.92586 74.40113 35089 ft 501 kts 160°
2026-05-06 15:21 47.86075 74.43811 35100 ft 501 kts 160°
2026-05-06 15:21 47.79540 74.47508 35098 ft 502 kts 160°
2026-05-06 15:22 47.73045 74.51152 35106 ft 503 kts 160°
2026-05-06 15:22 47.66498 74.54825 35112 ft 503 kts 160°
2026-05-06 15:23 47.59941 74.58513 35109 ft 503 kts 159°
2026-05-06 15:23 47.53387 74.62183 35112 ft 504 kts 159°
2026-05-06 15:24 47.47937 74.65243 35109 ft 504 kts 159°
2026-05-06 15:24 47.41378 74.68935 35114 ft 504 kts 159°
2026-05-06 15:25 47.34823 74.72613 35112 ft 504 kts 159°
2026-05-06 15:25 47.28267 74.76280 35119 ft 504 kts 159°
2026-05-06 15:26 47.21712 74.79926 35115 ft 504 kts 159°
2026-05-06 15:26 47.15151 74.83569 35111 ft 503 kts 159°
2026-05-06 15:27 47.08602 74.87202 35122 ft 503 kts 159°
2026-05-06 15:27 47.02060 74.90816 35117 ft 503 kts 159°
2026-05-06 15:28 46.95511 74.94420 35122 ft 502 kts 158°
2026-05-06 15:28 46.88979 74.98011 35116 ft 501 kts 158°
2026-05-06 15:29 46.82516 75.01823 35126 ft 500 kts 155°
2026-05-06 15:29 46.76207 75.05945 35112 ft 499 kts 154°
2026-05-06 15:30 46.69877 75.10100 35121 ft 498 kts 155°
2026-05-06 15:30 46.63524 75.14133 35113 ft 498 kts 155°
2026-05-06 15:31 46.57174 75.18104 35109 ft 496 kts 155°
2026-05-06 15:31 46.50830 75.22064 35106 ft 495 kts 155°
2026-05-06 15:32 46.41346 75.27999 35095 ft 494 kts 156°
2026-05-06 15:32 46.35051 75.31933 35101 ft 493 kts 156°
2026-05-06 15:33 46.28753 75.35858 35098 ft 492 kts 156°
2026-05-06 15:33 46.22471 75.39766 35090 ft 491 kts 156°
2026-05-06 15:34 46.16203 75.43667 35089 ft 491 kts 156°
2026-05-06 15:34 46.09936 75.47579 35089 ft 491 kts 156°
2026-05-06 15:35 46.03657 75.51484 35082 ft 491 kts 156°
2026-05-06 15:35 45.97437 75.55347 35084 ft 490 kts 156°
2026-05-06 15:36 45.91187 75.59215 35081 ft 489 kts 156°
2026-05-06 15:36 45.84938 75.63065 35080 ft 488 kts 156°
2026-05-06 15:37 45.78695 75.66902 35081 ft 487 kts 156°
2026-05-06 15:37 45.72465 75.70734 35082 ft 487 kts 156°
2026-05-06 15:38 45.66239 75.74556 35078 ft 486 kts 156°
2026-05-06 15:38 45.60021 75.78354 35081 ft 486 kts 156°
2026-05-06 15:39 45.53803 75.82145 35074 ft 486 kts 156°
2026-05-06 15:39 45.47591 75.85919 35074 ft 486 kts 156°
2026-05-06 15:40 45.41420 75.89664 35075 ft 485 kts 156°
2026-05-06 15:40 45.35208 75.93422 35074 ft 485 kts 156°
2026-05-06 15:41 45.29004 75.97189 34662 ft 480 kts 156°
2026-05-06 15:41 45.25977 75.99017 34555 ft 466 kts 156°
2026-05-06 15:41 45.23031 76.00790 34448 ft 453 kts 156°
2026-05-06 15:42 45.20167 76.02511 34349 ft 441 kts 156°
2026-05-06 15:42 45.17387 76.04182 34255 ft 428 kts 156°
2026-05-06 15:42 45.11978 76.07428 34078 ft 419 kts 156°
2026-05-06 15:43 45.06644 76.10622 33883 ft 415 kts 157°
2026-05-06 15:43 45.03984 76.12209 33725 ft 413 kts 157°
2026-05-06 15:43 45.01351 76.13784 33294 ft 409 kts 157°
2026-05-06 15:44 44.98746 76.15343 32880 ft 405 kts 157°
2026-05-06 15:44 44.96161 76.16884 32474 ft 401 kts 157°
2026-05-06 15:44 44.93596 76.18410 32066 ft 398 kts 157°
2026-05-06 15:44 44.91093 76.19897 31711 ft 393 kts 158°
2026-05-06 15:45 44.88584 76.21387 31334 ft 389 kts 158°
2026-05-06 15:45 44.86101 76.22867 30953 ft 386 kts 158°
2026-05-06 15:45 44.83639 76.24329 30582 ft 382 kts 158°
2026-05-06 15:45 44.81198 76.25775 30206 ft 379 kts 158°
2026-05-06 15:46 44.78775 76.27212 29801 ft 375 kts 158°
2026-05-06 15:46 44.76383 76.28628 29371 ft 372 kts 158°
2026-05-06 15:46 44.74005 76.30036 28938 ft 368 kts 159°
2026-05-06 15:46 44.71658 76.31424 28538 ft 364 kts 159°
2026-05-06 15:47 44.69331 76.32799 28093 ft 361 kts 159°
2026-05-06 15:47 44.67023 76.34162 27699 ft 358 kts 159°
2026-05-06 15:47 44.64736 76.35510 27287 ft 355 kts 159°
2026-05-06 15:47 44.62465 76.36847 26884 ft 352 kts 159°
2026-05-06 15:48 44.60217 76.38167 26496 ft 349 kts 159°
2026-05-06 15:48 44.57981 76.39478 26092 ft 347 kts 159°
2026-05-06 15:48 44.55768 76.40778 25721 ft 343 kts 159°
2026-05-06 15:48 44.53572 76.42071 25338 ft 341 kts 159°
2026-05-06 15:49 44.51397 76.43349 24968 ft 338 kts 159°
2026-05-06 15:49 44.49234 76.44618 24594 ft 336 kts 159°
2026-05-06 15:49 44.47087 76.45872 24232 ft 333 kts 159°
2026-05-06 15:49 44.44952 76.47115 23883 ft 331 kts 159°
2026-05-06 15:50 44.42837 76.48347 23514 ft 329 kts 159°
2026-05-06 15:50 44.40732 76.49573 23101 ft 326 kts 159°
2026-05-06 15:50 44.38646 76.50789 22704 ft 323 kts 159°
2026-05-06 15:50 44.36581 76.51993 22306 ft 321 kts 159°
2026-05-06 15:51 44.34574 76.53336 21918 ft 319 kts 153°
2026-05-06 15:51 44.32675 76.54946 21530 ft 318 kts 147°
2026-05-06 15:51 44.30900 76.56766 21146 ft 316 kts 144°
2026-05-06 15:51 44.29154 76.58612 20790 ft 313 kts 144°
2026-05-06 15:52 44.27419 76.60437 20429 ft 311 kts 144°
2026-05-06 15:52 44.25693 76.62247 20077 ft 309 kts 144°
2026-05-06 15:52 44.23980 76.64040 19736 ft 307 kts 144°
2026-05-06 15:52 44.22279 76.65821 19391 ft 305 kts 144°
2026-05-06 15:53 44.20587 76.67591 19035 ft 303 kts 144°
2026-05-06 15:53 44.18901 76.69351 18690 ft 302 kts 144°
2026-05-06 15:53 44.17225 76.71100 18356 ft 300 kts 144°
2026-05-06 15:53 44.15557 76.72840 17979 ft 299 kts 144°
2026-05-06 15:54 44.13901 76.74570 17612 ft 297 kts 144°
2026-05-06 15:54 44.12279 76.76266 17285 ft 295 kts 144°
2026-05-06 15:54 44.10619 76.78001 16957 ft 293 kts 144°
2026-05-06 15:54 44.08996 76.79698 16614 ft 291 kts 144°
2026-05-06 15:55 44.07379 76.81384 16268 ft 290 kts 144°
2026-05-06 15:55 44.05773 76.83055 15926 ft 288 kts 144°
2026-05-06 15:55 44.04194 76.84695 15589 ft 286 kts 145°
2026-05-06 15:55 44.02607 76.86341 15269 ft 284 kts 145°
2026-05-06 15:56 44.01029 76.87977 14929 ft 282 kts 145°
2026-05-06 15:56 43.99460 76.89606 14600 ft 281 kts 145°
2026-05-06 15:56 43.97899 76.91226 14279 ft 279 kts 145°
2026-05-06 15:56 43.96348 76.92836 13965 ft 278 kts 145°
2026-05-06 15:57 43.94806 76.94437 13630 ft 276 kts 145°
2026-05-06 15:57 43.93273 76.96026 13294 ft 274 kts 145°
2026-05-06 15:57 43.91750 76.97602 12947 ft 272 kts 145°
2026-05-06 15:57 43.90235 76.99170 12614 ft 270 kts 145°
2026-05-06 15:58 43.88733 77.00723 12287 ft 269 kts 145°
2026-05-06 15:58 43.87243 77.02263 11966 ft 267 kts 145°
2026-05-06 15:58 43.85758 77.03792 11650 ft 265 kts 145°
2026-05-06 15:58 43.84285 77.05310 11340 ft 263 kts 145°
2026-05-06 15:59 43.82822 77.06815 11022 ft 261 kts 144°
2026-05-06 15:59 43.81373 77.08304 10712 ft 260 kts 144°
2026-05-06 15:59 43.79926 77.09789 10403 ft 258 kts 144°
2026-05-06 15:59 43.78490 77.11263 10110 ft 256 kts 144°
2026-05-06 16:00 43.77065 77.12729 9801 ft 255 kts 144°
2026-05-06 16:00 43.75643 77.14189 9464 ft 254 kts 144°
2026-05-06 16:00 43.74227 77.15642 9119 ft 253 kts 144°
2026-05-06 16:00 43.72817 77.17086 8783 ft 252 kts 144°
2026-05-06 16:01 43.71410 77.18527 8439 ft 251 kts 144°
2026-05-06 16:01 43.70012 77.19959 8107 ft 250 kts 144°
2026-05-06 16:01 43.68614 77.21394 7756 ft 250 kts 144°
2026-05-06 16:01 43.67223 77.22822 7433 ft 249 kts 144°
2026-05-06 16:02 43.65838 77.24239 7123 ft 247 kts 144°
2026-05-06 16:02 43.64457 77.25652 6794 ft 246 kts 144°
2026-05-06 16:02 43.63082 77.27057 6474 ft 245 kts 144°
2026-05-06 16:02 43.61713 77.28457 6130 ft 245 kts 144°
2026-05-06 16:03 43.60348 77.29854 5777 ft 244 kts 144°
2026-05-06 16:03 43.58981 77.31240 5445 ft 244 kts 145°
2026-05-06 16:03 43.57590 77.32577 5104 ft 243 kts 146°
2026-05-06 16:03 43.56193 77.33886 4775 ft 243 kts 146°
2026-05-06 16:04 43.54786 77.35162 4417 ft 242 kts 153°
2026-05-06 16:04 43.53202 77.35774 4198 ft 236 kts 180°
2026-05-06 16:04 43.51596 77.35393 4195 ft 236 kts 204°
2026-05-06 16:04 43.50261 77.34101 4202 ft 237 kts 229°
2026-05-06 16:05 43.49316 77.32235 4203 ft 238 kts 236°
2026-05-06 16:05 43.48410 77.30331 4204 ft 239 kts 236°
2026-05-06 16:05 43.47496 77.28419 4202 ft 238 kts 236°
2026-05-06 16:05 43.46618 77.26602 4204 ft 215 kts 236°
2026-05-06 16:06 43.45837 77.25010 4202 ft 190 kts 236°
2026-05-06 16:06 43.45131 77.23575 4199 ft 174 kts 236°
2026-05-06 16:06 43.44480 77.22255 4211 ft 162 kts 236°
2026-05-06 16:06 43.43855 77.20992 4203 ft 158 kts 236°
2026-05-06 16:07 43.43243 77.19753 4200 ft 156 kts 236°
2026-05-06 16:07 43.42632 77.18514 4094 ft 156 kts 236°
2026-05-06 16:07 43.42035 77.17276 3920 ft 155 kts 238°
2026-05-06 16:07 43.41470 77.16020 3734 ft 154 kts 237°
2026-05-06 16:08 43.40867 77.14808 3523 ft 153 kts 235°
2026-05-06 16:08 43.40254 77.13611 3413 ft 154 kts 234°
2026-05-06 16:08 43.39662 77.12391 3164 ft 152 kts 236°
2026-05-06 16:08 43.39072 77.11195 2944 ft 152 kts 233°
2026-05-06 16:09 43.38673 77.10413 2820 ft 151 kts 233°
2026-05-06 16:09 43.37885 77.08846 2576 ft 151 kts 235°
2026-05-06 16:09 43.37288 77.07658 2368 ft 151 kts 234°
2026-05-06 16:09 43.36703 77.06485 2232 ft 138 kts 234°
2026-05-06 16:10 43.36325 77.05727 2226 ft 53 kts 237°
2026-05-06 16:10 43.36246 77.05563 2226 ft 22 kts 236°
2026-05-06 16:10 43.36160 77.05390 2226 ft 24 kts 236°
2026-05-06 16:10 43.36016 77.05100 2223 ft 31 kts 236°
2026-05-06 16:11 43.35964 77.04996 2222 ft 31 kts 236°
2026-05-06 16:11 43.35891 77.04849 2224 ft 31 kts 236°
2026-05-06 16:11 43.35773 77.04608 2225 ft 30 kts 236°
2026-05-06 16:11 43.35660 77.04377 2225 ft 29 kts 236°
2026-05-06 16:12 43.35544 77.04145 2222 ft 29 kts 235°
2026-05-06 16:12 43.35428 77.03915 2222 ft 29 kts 235°
2026-05-06 16:12 43.35312 77.03684 2225 ft 30 kts 235°
2026-05-06 16:12 43.35194 77.03449 2229 ft 29 kts 236°
2026-05-06 16:13 43.35082 77.03217 2226 ft 29 kts 236°
2026-05-06 16:13 43.34968 77.02986 2225 ft 30 kts 236°
2026-05-06 16:13 43.34852 77.02752 2223 ft 30 kts 236°
2026-05-06 16:13 43.34776 77.02504 2228 ft 28 kts 270°
2026-05-06 16:14 43.34782 77.02301 2228 ft 15 kts 273°
2026-05-06 16:14 43.34789 77.02155 2228 ft 16 kts 274°
2026-05-06 16:14 43.34798 77.02000 2229 ft 17 kts 274°
2026-05-06 16:14 43.34806 77.01835 2229 ft 18 kts 274°
2026-05-06 16:15 43.34814 77.01659 2227 ft 19 kts 273°
2026-05-06 16:15 43.34807 77.01479 2227 ft 19 kts 257°
2026-05-06 16:15 43.34759 77.01350 2226 ft 6 kts 235°
2026-05-06 16:15 43.34736 77.01293 2226 ft 7 kts 245°
2026-05-06 16:16 43.34732 77.01281 2226 ft 0 kts 245°